Torna al catalogo

KUIPER-00587

AttivoComunicazioniLEO
NORAD 69275·PAYLOAD·🇺🇸 United States

Lanciato May 29, 2026 da Vandenberg Space Force Base

Loading…

Prossimi Passaggi (prossime 24 ore)

TLE

AggiornatoSource: CelesTrak SupGP

Epoca: Sep 14, 2026, 17:28 UTC

1 69275C 26118J   26257.72790509  .00008534  00000+0  11173-2 0  2579
2 69275  51.9019 359.7175 0000711  86.2432 123.2392 14.79919395    17

Traccia KUIPER-00587 in tempo reale con AllMySat

Download on the App Store